| time (UTC) | temp C | wind direction | speed KPH | gust KPH | rain 1hr cm | rain 24hr cm | rain mn cm | humidity % | barometer mb |
| 20260504080341 | 4 | 230 | 0.0 | 1.6 | 0.00 | 0.00 | 0.00 | 78 | 1015.3 |
| 20260504070329 | 5 | 230 | 0.0 | 1.6 | 0.00 | 0.00 | 0.00 | 79 | 1015.4 |
| 20260504050327 | 6 | 231 | 0.0 | 1.6 | 0.00 | 0.00 | 0.00 | 75 | 1015.5 |
| 20260504045324 | 6 | 231 | 0.0 | 1.6 | 0.00 | 0.00 | 0.00 | 74 | 1015.5 |
| 20260504044339 | 5 | 172 | 0.0 | 0.0 | 0.00 | 0.00 | 0.00 | 75 | 1015.4 |
| 20260504043325 | 6 | 226 | 1.6 | 1.6 | 0.00 | 0.00 | 0.00 | 74 | 1015.4 |
| 20260504041337 | 5 | 238 | 0.0 | 1.6 | 0.00 | 0.00 | 0.00 | 76 | 1015.3 |
| 20260504040331 | 6 | 238 | 0.0 | 1.6 | 0.00 | 0.00 | 0.00 | 75 | 1015.1 |
| 20260504035329 | 6 | 238 | 0.0 | 0.0 | 0.00 | 0.00 | 0.00 | 75 | 1015.1 |
| 20260504034346 | 6 | 238 | 0.0 | 1.6 | 0.00 | 0.00 | 0.00 | 74 | 1015.1 |
| 20260504032330 | 6 | 238 | 0.0 | 1.6 | 0.00 | 0.00 | 0.00 | 73 | 1015.0 |
| 20260504030324 | 7 | 238 | 0.0 | 1.6 | 0.00 | 0.00 | 0.00 | 71 | 1014.9 |
| 20260504025337 | 7 | 238 | 0.0 | 1.6 | 0.00 | 0.00 | 0.00 | 68 | 1014.9 |
| 20260504024336 | 7 | 238 | 0.0 | 1.6 | 0.00 | 0.00 | 0.00 | 67 | 1014.8 |
| 20260504022346 | 7 | 238 | 0.0 | 0.0 | 0.00 | 0.00 | 0.00 | 66 | 1014.8 |
| 20260504021337 | 8 | 238 | 0.0 | 1.6 | 0.00 | 0.00 | 0.00 | 64 | 1014.8 |
| 20260504020328 | 8 | 238 | 0.0 | 1.6 | 0.00 | 0.00 | 0.00 | 64 | 1014.8 |
| 20260504015324 | 8 | 238 | 0.0 | 0.0 | 0.00 | 0.00 | 0.00 | 64 | 1014.8 |
| 20260504014343 | 8 | 238 | 0.0 | 0.0 | 0.00 | 0.00 | 0.00 | 63 | 1014.8 |
| 20260504013330 | 8 | 238 | 0.0 | 0.0 | 0.00 | 0.00 | 0.00 | 59 | 1014.6 |
| 20260504012328 | 9 | 238 | 0.0 | 1.6 | 0.00 | 0.00 | 0.00 | 59 | 1014.6 |
| 20260504011325 | 9 | 238 | 0.0 | 0.0 | 0.00 | 0.00 | 0.00 | 56 | 1014.4 |
| 20260504010337 | 10 | 238 | 0.0 | 1.6 | 0.00 | 0.00 | 0.00 | 55 | 1014.4 |
| 20260504005323 | 10 | 238 | 0.0 | 1.6 | 0.00 | 0.00 | 0.00 | 55 | 1014.4 |
| 20260504004354 | 11 | 238 | 0.0 | 1.6 | 0.00 | 0.00 | 0.00 | 50 | 1014.2 |
| 20260504002324 | 12 | 238 | 0.0 | 1.6 | 0.00 | 0.00 | 0.00 | 46 | 1014.1 |
| 20260504001335 | 13 | 235 | 1.6 | 3.2 | 0.00 | 0.00 | 0.00 | 44 | 1014.0 |
| 20260504000337 | 13 | 239 | 1.6 | 4.8 | 0.00 | 0.00 | 0.00 | 42 | 1013.8 |
| 20260503235323 | 13 | 264 | 3.2 | 8.0 | 0.00 | 0.00 | 0.00 | 41 | 1013.8 |
| 20260503233339 | 14 | 274 | 3.2 | 8.0 | 0.00 | 0.00 | 0.00 | 38 | 1013.4 |
| 20260503232338 | 15 | 259 | 4.8 | 9.7 | 0.00 | 0.00 | 0.00 | 38 | 1013.4 |
| 20260503231333 | 15 | 241 | 4.8 | 9.7 | 0.00 | 0.00 | 0.00 | 37 | 1013.5 |
| 20260503230326 | 15 | 284 | 3.2 | 22.5 | 0.00 | 0.00 | 0.00 | 36 | 1013.5 |
| 20260503225338 | 15 | 255 | 6.4 | 12.9 | 0.00 | 0.00 | 0.00 | 36 | 1013.5 |
| 20260503224324 | 15 | 217 | 4.8 | 19.3 | 0.00 | 0.00 | 0.00 | 36 | 1013.4 |
| 20260503223331 | 15 | 203 | 3.2 | 22.5 | 0.00 | 0.00 | 0.00 | 35 | 1013.4 |
| 20260503221325 | 15 | 243 | 3.2 | 19.3 | 0.00 | 0.00 | 0.00 | 35 | 1013.5 |
| 20260503220321 | 15 | 288 | 6.4 | 14.5 | 0.00 | 0.00 | 0.00 | 36 | 1013.4 |
| 20260503215347 | 15 | 274 | 8.0 | 22.5 | 0.00 | 0.00 | 0.00 | 33 | 1013.5 |
| 20260503213337 | 15 | 277 | 6.4 | 22.5 | 0.00 | 0.00 | 0.00 | 34 | 1013.4 |
| 20260503211334 | 16 | 297 | 8.0 | 20.9 | 0.00 | 0.00 | 0.00 | 33 | 1013.4 |
| 20260503210331 | 16 | 225 | 9.7 | 17.7 | 0.00 | 0.00 | 0.00 | 34 | 1013.4 |
| 20260503205328 | 15 | 317 | 9.7 | 24.1 | 0.00 | 0.00 | 0.00 | 34 | 1013.4 |
| 20260503204343 | 15 | 287 | 6.4 | 17.7 | 0.00 | 0.00 | 0.00 | 34 | 1013.4 |
| 20260503203323 | 15 | 17 | 8.0 | 16.1 | 0.00 | 0.00 | 0.00 | 35 | 1013.4 |
| 20260503202342 | 15 | 273 | 11.3 | 19.3 | 0.00 | 0.00 | 0.00 | 34 | 1013.5 |
| 20260503201342 | 15 | 238 | 8.0 | 19.3 | 0.00 | 0.00 | 0.00 | 35 | 1013.7 |
| 20260503200338 | 15 | 257 | 8.0 | 25.7 | 0.00 | 0.00 | 0.00 | 34 | 1013.9 |
| 20260503195322 | 15 | 1 | 6.4 | 24.1 | 0.00 | 0.00 | 0.00 | 34 | 1014.0 |
| 20260503193336 | 14 | 309 | 12.9 | 25.7 | 0.00 | 0.00 | 0.00 | 33 | 1014.3 |
| 20260503192336 | 14 | 225 | 9.7 | 24.1 | 0.00 | 0.00 | 0.00 | 32 | 1014.4 |
| 20260503191335 | 14 | 280 | 9.7 | 25.7 | 0.00 | 0.00 | 0.00 | 33 | 1014.4 |
| 20260503190324 | 14 | 242 | 8.0 | 19.3 | 0.00 | 0.00 | 0.00 | 36 | 1014.5 |
| 20260503184510 | 13 | 233 | 6.4 | 19.3 | 0.00 | 0.00 | 0.00 | 36 | 1014.8 |
| 20260503183336 | 13 | 341 | 11.3 | 20.9 | 0.00 | 0.00 | 0.00 | 36 | 1014.9 |
| 20260503182329 | 13 | 279 | 8.0 | 22.5 | 0.00 | 0.00 | 0.00 | 37 | 1014.9 |
| 20260503181326 | 13 | 310 | 6.4 | 24.1 | 0.00 | 0.00 | 0.00 | 39 | 1015.1 |
| 20260503180338 | 13 | 305 | 11.3 | 32.2 | 0.00 | 0.00 | 0.00 | 37 | 1015.1 |
| 20260503175326 | 13 | 245 | 8.0 | 20.9 | 0.00 | 0.00 | 0.00 | 39 | 1015.1 |
| 20260503174325 | 13 | 41 | 9.7 | 27.4 | 0.00 | 0.00 | 0.00 | 37 | 1015.2 |
| 20260503173342 | 13 | 278 | 8.0 | 22.5 | 0.00 | 0.00 | 0.00 | 38 | 1015.1 |
| 20260503172338 | 12 | 38 | 6.4 | 22.5 | 0.00 | 0.00 | 0.00 | 41 | 1015.3 |
| 20260503171326 | 12 | 326 | 9.7 | 20.9 | 0.00 | 0.00 | 0.00 | 38 | 1015.4 |
| 20260503170338 | 12 | 322 | 11.3 | 22.5 | 0.00 | 0.00 | 0.00 | 38 | 1015.5 |
| 20260503131325 | 7 | 317 | 12.9 | 20.9 | 0.00 | 0.00 | 0.00 | 56 | 1016.5 |
| 20260503130341 | 7 | 269 | 8.0 | 19.3 | 0.00 | 0.00 | 0.00 | 59 | 1016.5 |
| 20260503110325 | 5 | 305 | 6.4 | 9.7 | 0.00 | 0.00 | 0.00 | 63 | 1015.4 |